Regional Weather Roundup
Issued by NWS Huntsville, AL

Home | Current Version | Previous Version | Text Only | Print | Product List | Glossary On
Versions: 1 2 3 4 5 6 7 8 9 10 11 12 13 14 15 16 17 18 19 20 21 22 23 24 25 26 27 28 29 30 31 32 33 34 35 36 37 38 39 40 41 42 43 44 45 46 47 48 49 50
000
ASUS44 KHUN 281910
RWRHUN

WEATHER ROUNDUP FOR THE TENNESSEE VALLEY
NATIONAL WEATHER SERVICE HUNTSVILLE AL
200 PM CDT WED SEP 28 2016

ALZ001>004-282000-
NORTHWEST ALABAMA

CITY           SKY/WX    TMP DP  RH WIND       PRES   REMARKS
COURTLAND HCN    N/A     82 N/A N/A SW8         N/A
RUSSELLVILLE     N/A     82 N/A N/A MISG        N/A
SHOALS AIRPORT SUNNY     85  40  20 SW8G17    29.93F
SHOALS TVA RES   N/A     84 N/A N/A MISG        N/A
$$

ALZ005>007-016-282000-
NORTH CENTRAL ALABAMA

CITY           SKY/WX    TMP DP  RH WIND       PRES   REMARKS
CULLMAN AG STN   N/A     82 N/A N/A SW6         N/A
DECATUR AP     SUNNY     84  42  22 VRB6      29.92F
HUNTSVILLE AP  SUNNY     85  41  21 CALM      29.92F
MERIDIANVILLE  SUNNY     81  30  16 SW9       29.93F
REDSTONE ARSN  SUNNY     82  43  24 VRB6      29.91F
VINEMONT AP    FAIR      83  40  21 S13       29.96F
$$

ALZ008>010-282000-
NORTHEAST ALABAMA

CITY           SKY/WX    TMP DP  RH WIND       PRES   REMARKS
ALBERTVILLE    SUNNY     82  50  32 W7        29.93F
FORT PAYNE     SUNNY     82  28  14 W7        29.91F
SCOTTSBORO AP  SUNNY     82  45  26 S10       29.92F
SCOTTSBORO HCN   N/A     82 N/A N/A MISG        N/A
VALLEY HEAD      N/A     79 N/A N/A MISG        N/A
$$

TNZ076-096-097-282000-
SOUTHEASTERN MIDDLE TENNESSEE

CITY           SKY/WX    TMP DP  RH WIND       PRES   REMARKS
TULLAHOMA      SUNNY     81  43  26 SW15      29.94F
WINCHESTER     SUNNY     81  46  30 W8        29.93F
$$

...SURROUNDING SITES...

CITY           SKY/WX    TMP DP  RH WIND       PRES   REMARKS
ATLANTA        MOSUNNY   84  56  38 VRB7G17   29.94F
ANNISTON       SUNNY     86  42  21 SW8G17    29.93F
BIRMINGHAM     SUNNY     85  38  18 VRB3      29.96F
CHATTANOOGA    MOSUNNY   82  43  25 SW7       29.91F
CORINTH        FAIR      86  43  22 SW12      29.89F
DALTON         SUNNY     81  41  24 S3        29.92F
GADSDEN        SUNNY     85  41  21 VRB7      29.92
GOLDEN TRNGL   SUNNY     84  43  23 S9        29.95F
HALEYVILLE     FAIR      82  44  26 SW9       29.96F
JACKSON TN     SUNNY    N/A N/A N/A SW17      29.86F
MEMPHIS        SUNNY     87  51  28 SW13G22   29.89F
NASHVILLE      MOSUNNY   83  46  27 SW12G23   29.87F
OXFORD MS      FAIR      84  43  23 SW9G20    29.94F
ROME           SUNNY     86  37  17 VRB7      29.91F
SAVANNAH       SUNNY     86  46  25 SW14G23   29.88F
TUPELO         SUNNY     85  42  22 SW8G17    29.92F
TUSCALOOSA     SUNNY     86  41  20 SW10G16   29.94F
$$

...GULF COAST WEATHER...

CITY           SKY/WX    TMP DP  RH WIND       PRES   REMARKS
GULFPORT       SUNNY     88  64  44 W8        29.96F
PASCAGOULA     SUNNY     89  70  53 MISG      29.96F HX  94
MOBILE         MOSUNNY   87  64  46 W7        29.97F
GULF SHORES    CLEAR     87  71  59 W12       29.95F HX  92
PENSACOLA      PTSUNNY   85  74  69 SW9       29.94F HX  92
DESTIN         CLOUDY    88  74  63 SW10G16   29.94F HX  96
PANAMA CITY    MOSUNNY   86  75  69 SW10      29.94F HX  95
APPALACHICOLA  SUNNY     87  76  69 W12       29.96F HX  97
$$




USA.gov is the U.S. government's official web portal to all federal, state and local government web resources and services.